Regional Weather Roundup
Issued by NWS

Home | Current Version | Previous Version | Graphics & Text | Print | Product List | Glossary On
Versions: 1 2 3 4 5 6 7 8 9 10 11 12 13 14 15 16 17 18 19 20 21 22 23 24 25 26 27 28
000
ASUS45 KBOI 201010
RWRID

IDAHO REGIONAL WEATHER ROUNDUP
NATIONAL WEATHER SERVICE BOISE ID
400 AM MDT FRI APR 20 2018

NOTE: "FAIR" INDICATES FEW OR NO CLOUDS BELOW 12000 FEET
WITH NO SIGNIFICANT WEATHER AND/OR OBSTRUCTIONS TO VISIBILITY

IDZ012-014-201100-
SOUTHWEST IDAHO


CITY           SKY/WX    TMP DP  RH WIND       PRES   REMARKS
BOISE          FAIR      45  30  55 NW9       30.03S
CALDWELL       NOT AVBL
MOUNTAIN HOME  FAIR      46  29  53 NW29G39   29.98R
$$

IDZ016-017-201100-
SOUTHCENTRAL IDAHO


CITY           SKY/WX    TMP DP  RH WIND       PRES   REMARKS
BURLEY         FAIR      41  31  67 W10       29.95R
JEROME         FAIR      40  30  67 SW8       29.98R WCI  34
TWIN FALLS     FAIR      40  29  64 SW14      29.99R WCI  32
$$

IDZ019>023-201100-
SOUTHEAST IDAHO


CITY           SKY/WX    TMP DP  RH WIND       PRES   REMARKS
IDAHO FALLS    FAIR      41  27  57 N14       29.94R
POCATELLO      FAIR      43  27  53 E5        29.94R
REXBURG        FAIR      40  26  57 NE9       29.94S WCI  34
$$

IDZ006-010-011-018-031-032-201100-
CENTRAL IDAHO MOUNTAINS


CITY           SKY/WX    TMP DP  RH WIND       PRES   REMARKS
MCCALL         FAIR      39  24  55 N12       30.11S WCI  32
HAILEY         FAIR      43  27  52 NW9       30.01S
STANLEY          N/A     25  21  85 CALM      30.11R
SALMON         FAIR      37  25  61 CALM      30.10R
CHALLIS        FAIR      43  22  43 N6        30.07S
$$

IDZ002-004-006-007-026-201100-
NORTHERN IDAHO


CITY           SKY/WX    TMP DP  RH WIND       PRES   REMARKS
LEWISTON       FAIR      45  33  63 CALM      30.18S
LOWELL           N/A     38  36  92 CALM      30.23R
COEUR D`ALENE  FAIR      38  32  79 CALM      30.17R
MULLAN PASS    FAIR      33  23  66 NW6       30.14S WCI  28
$$




USA.gov is the U.S. government's official web portal to all federal, state and local government web resources and services.